Back to catalog

CRRES DEB

CANISTER

AliveHEO
NORAD 27405·DEBRIS·🇺🇸 United States

Launched Jul 25, 1990 from Cape Canaveral Space Force Station

Loading…

Next Passes (next 24 hours)

TLE

FreshSource: Space-Track

Epoch: Sep 8, 2026, 08:00 UTC

1 27405U 90065W   26251.33344945  .00001920  00000-0  84521-3 0  9994
2 27405  18.1318 338.2864 6215529 278.7204  19.9525  3.68000429176979

Track CRRES DEB in real time with AllMySat

Download on the App Store